M I D A S
Marine Information and Data Acquisition System
Tripno 1724 of the Zeeleeuw from 2009-03-16 08:21:21 to 2009-03-16 13:36:56
Back to CruiseResearch ActivitiesStationsMapUnderway DataData graphs

EquipmentUnitsComments
TimeDGPSUTC
LatitudeDGPSDM.mWGS84
LongitudeDGPSDM.mWGS84
SpeedMeteo Stationm/sRelative wind speed
DirectionMeteo StationdegRelative wind direction
TemperatureMeteo Stationdeg CelciusAir temperature
PressureMeteo StationPaAtmospheric pressure
HumidityMeteo Station%Relative humidity
Missing or incorrect values are displayed as -999
Metereological data collected by the RV Zeeleeuw from 2009-03-16 08:24:21 to 2009-03-16 13:46:07
                                                                                    Next 1000 lines
Time Latitude Longitude Speed Direction Temperature Pressure Humidity
2009-03-16 08:24:32 51°13.663 2°55.956 3.2 40 7.1 103380 80
2009-03-16 08:24:37 51°13.663 2°55.954 3.2 34 7.1 103380 80
2009-03-16 08:24:42 51°13.664 2°55.951 2.7 40 7.1 103380 80
2009-03-16 08:24:47 51°13.665 2°55.948 2.6 41 7.1 103380 80
2009-03-16 08:24:52 51°13.666 2°55.944 2.7 37 7.1 103380 80
2009-03-16 08:24:58 51°13.668 2°55.94 2.5 35 7.1 103380 80
2009-03-16 08:25:04 51°13.669 2°55.936 3 34 7.1 103380 80
2009-03-16 08:25:09 51°13.671 2°55.931 2.4 35 7.1 103380 80
2009-03-16 08:25:15 51°13.673 2°55.926 2.3 33 7.1 103380 80
2009-03-16 08:25:21 51°13.675 2°55.921 2.3 29 7.1 103380 80
2009-03-16 08:25:25 51°13.676 2°55.917 2.1 33 7.1 103380 80
2009-03-16 08:25:30 51°13.678 2°55.912 2 36 7.2 103380 79
2009-03-16 08:25:36 51°13.68 2°55.906 1.7 38 7.2 103380 79
2009-03-16 08:25:41 51°13.682 2°55.901 1.9 19 7.2 103380 79
2009-03-16 08:25:46 51°13.683 2°55.896 1.5 56 7.2 103380 79
2009-03-16 08:25:50 51°13.684 2°55.892 2.3 26 7.1 103380 79
2009-03-16 08:25:55 51°13.686 2°55.887 2 44 7.1 103380 79
2009-03-16 08:26:00 51°13.687 2°55.882 1.8 24 7.2 103380 79
2009-03-16 08:26:05 51°13.688 2°55.877 1.5 35 7.2 103380 79
2009-03-16 08:26:10 51°13.689 2°55.872 2.7 22 7.2 103380 79
2009-03-16 08:26:15 51°13.69 2°55.867 2.6 37 7.2 103380 79
2009-03-16 08:26:20 51°13.691 2°55.862 2.7 35 7.2 103380 79
2009-03-16 08:26:25 51°13.692 2°55.857 3.1 40 7.2 103380 79
2009-03-16 08:26:30 51°13.693 2°55.852 2.7 40 7.2 103380 80
2009-03-16 08:26:34 51°13.694 2°55.848 2 40 7.2 103380 80
2009-03-16 08:26:39 51°13.695 2°55.842 2.1 44 7.2 103380 79
2009-03-16 08:26:44 51°13.696 2°55.837 2.4 21 7.2 103380 79
2009-03-16 08:26:50 51°13.696 2°55.83 2.4 44 7.2 103380 79
2009-03-16 08:26:54 51°13.697 2°55.826 2.2 54 7.2 103380 79
2009-03-16 08:26:58 51°13.697 2°55.822 2 26 7.2 103380 79
2009-03-16 08:27:04 51°13.698 2°55.815 2.2 44 7.2 103380 79
2009-03-16 08:27:09 51°13.698 2°55.809 2.4 27 7.2 103380 79
2009-03-16 08:27:14 51°13.699 2°55.804 2.2 44 7.2 103380 79
2009-03-16 08:27:19 51°13.699 2°55.798 2.7 42 7.2 103380 79
2009-03-16 08:27:24 51°13.699 2°55.793 3.1 41 7.2 103380 79
2009-03-16 08:27:29 51°13.699 2°55.788 2.6 41 7.2 103380 79
2009-03-16 08:27:34 51°13.699 2°55.782 2.8 56 7.2 103380 79
2009-03-16 08:27:39 51°13.699 2°55.778 2.7 26 7.2 103380 79
2009-03-16 08:27:43 51°13.699 2°55.775 2.2 40 7.2 103380 79
2009-03-16 08:27:48 51°13.699 2°55.771 2.3 43 7.2 103380 79
2009-03-16 08:27:53 51°13.699 2°55.769 1.8 38 7.2 103380 79
2009-03-16 08:27:58 51°13.699 2°55.767 1.2 43 7.3 103380 79
2009-03-16 08:28:03 51°13.7 2°55.767 2 54 7.3 103380 79
2009-03-16 08:28:08 51°13.701 2°55.767 2.5 24 7.3 103380 79
2009-03-16 08:28:12 51°13.702 2°55.767 2 50 7.3 103380 79
2009-03-16 08:28:17 51°13.703 2°55.767 1.5 20 7.3 103380 79
2009-03-16 08:28:22 51°13.705 2°55.769 2 54 7.3 103380 79
2009-03-16 08:28:27 51°13.706 2°55.77 2.1 23 7.3 103380 79
2009-03-16 08:28:32 51°13.708 2°55.771 2.2 56 7.3 103380 79
2009-03-16 08:28:37 51°13.71 2°55.771 1.2 24 7.3 103380 79
2009-03-16 08:28:42 51°13.711 2°55.771 1.6 58 7.3 103380 79
2009-03-16 08:28:47 51°13.713 2°55.771 1.7 19 7.3 103380 79
2009-03-16 08:28:52 51°13.713 2°55.771 2 58 7.3 103380 79
2009-03-16 08:28:57 51°13.713 2°55.77 2.3 25 7.3 103380 79
2009-03-16 08:29:02 51°13.713 2°55.77 2.7 55 7.3 103380 79
2009-03-16 08:29:07 51°13.713 2°55.769 2 24 7.3 103380 79
2009-03-16 08:29:12 51°13.712 2°55.768 3.1 51 7.3 103380 79
2009-03-16 08:29:17 51°13.711 2°55.767 2.5 20 7.3 103380 79
2009-03-16 08:29:22 51°13.71 2°55.767 2.2 49 7.3 103380 79
2009-03-16 08:29:26 51°13.709 2°55.766 3.2 25 7.3 103380 79
2009-03-16 08:29:32 51°13.708 2°55.766 3.4 55 7.3 103380 79
2009-03-16 08:29:37 51°13.708 2°55.765 2.6 20 7.4 103380 79
2009-03-16 08:29:42 51°13.708 2°55.764 2.4 50 7.4 103380 79
2009-03-16 08:29:47 51°13.709 2°55.764 1.4 263 7.4 103380 79
2009-03-16 08:29:52 51°13.71 2°55.763 2 305 7.4 103380 79
2009-03-16 08:29:57 51°13.712 2°55.761 2.2 268 7.4 103390 78
2009-03-16 08:30:02 51°13.714 2°55.76 2.5 305 7.4 103390 78
2009-03-16 08:30:07 51°13.716 2°55.758 3.3 260 7.4 103390 78
2009-03-16 08:30:11 51°13.718 2°55.756 2.8 303 7.4 103390 78
2009-03-16 08:30:17 51°13.721 2°55.752 2.8 252 7.4 103380 78
2009-03-16 08:30:22 51°13.724 2°55.749 2.2 310 7.4 103380 78
2009-03-16 08:30:27 51°13.728 2°55.744 2.9 252 7.4 103380 78
2009-03-16 08:30:32 51°13.731 2°55.74 2.2 302 7.4 103380 78
2009-03-16 08:30:37 51°13.735 2°55.734 2.5 20 7.4 103380 78
2009-03-16 08:30:42 51°13.74 2°55.729 2.1 305 7.4 103380 78
2009-03-16 08:30:47 51°13.745 2°55.723 2.5 22 7.4 103380 78
2009-03-16 08:30:52 51°13.75 2°55.716 1.9 304 7.4 103380 78
2009-03-16 08:30:57 51°13.756 2°55.71 2.6 316 7.5 103380 78
2009-03-16 08:31:02 51°13.762 2°55.702 2.2 309 7.5 103380 78
2009-03-16 08:31:07 51°13.769 2°55.695 2.3 317 7.5 103380 78
2009-03-16 08:31:12 51°13.777 2°55.686 3 309 7.5 103380 78
2009-03-16 08:31:17 51°13.785 2°55.678 2.3 26 7.5 103390 78
2009-03-16 08:31:22 51°13.793 2°55.67 2.9 321 7.5 103390 78
2009-03-16 08:31:27 51°13.803 2°55.662 3 317 7.5 103380 79
2009-03-16 08:31:32 51°13.812 2°55.654 3.6 324 7.5 103380 79
2009-03-16 08:31:37 51°13.822 2°55.646 3.1 323 7.5 103380 78
2009-03-16 08:31:42 51°13.832 2°55.637 3.1 303 7.5 103380 78
2009-03-16 08:31:47 51°13.842 2°55.629 2.9 323 7.6 103380 78
2009-03-16 08:31:52 51°13.853 2°55.62 3.4 327 7.6 103380 78
2009-03-16 08:31:57 51°13.864 2°55.612 4 323 7.6 103380 78
2009-03-16 08:32:02 51°13.875 2°55.603 3.4 335 7.6 103380 78
2009-03-16 08:32:07 51°13.887 2°55.595 3.8 337 7.6 103380 78
2009-03-16 08:32:12 51°13.899 2°55.586 3.1 329 7.6 103380 78
2009-03-16 08:32:17 51°13.911 2°55.577 3.8 317 7.6 103390 78
2009-03-16 08:32:22 51°13.922 2°55.568 4.2 304 7.6 103390 78
2009-03-16 08:32:27 51°13.934 2°55.558 4.1 327 7.6 103390 78
2009-03-16 08:32:32 51°13.945 2°55.549 3.9 303 7.6 103390 78
2009-03-16 08:32:37 51°13.957 2°55.539 4.6 325 7.6 103390 78
2009-03-16 08:32:42 51°13.969 2°55.531 3.4 326 7.6 103390 78
2009-03-16 08:32:47 51°13.981 2°55.522 4.9 329 7.6 103390 78
2009-03-16 08:32:52 51°13.993 2°55.512 5 307 7.6 103390 78
2009-03-16 08:32:58 51°14.008 2°55.502 4 319 7.6 103380 77
2009-03-16 08:33:03 51°14.02 2°55.493 4.5 304 7.6 103380 77
2009-03-16 08:33:08 51°14.032 2°55.484 4.6 320 7.7 103390 78
2009-03-16 08:33:12 51°14.042 2°55.477 3.9 302 7.7 103390 78
2009-03-16 08:33:17 51°14.054 2°55.468 3.8 322 7.7 103390 77
2009-03-16 08:33:22 51°14.066 2°55.459 3.7 306 7.7 103390 77
2009-03-16 08:33:27 51°14.078 2°55.45 3.7 324 7.7 103390 77
2009-03-16 08:33:31 51°14.088 2°55.442 3.9 305 7.7 103390 77
2009-03-16 08:33:37 51°14.102 2°55.431 4.3 316 7.7 103390 77
2009-03-16 08:33:43 51°14.117 2°55.419 4.8 302 7.7 103390 77
2009-03-16 08:33:47 51°14.126 2°55.411 5.8 329 7.7 103390 77
2009-03-16 08:33:52 51°14.138 2°55.4 4.9 304 7.7 103390 77
2009-03-16 08:33:57 51°14.15 2°55.389 3.3 319 7.8 103390 77
2009-03-16 08:34:02 51°14.162 2°55.379 3.8 331 7.8 103390 77
2009-03-16 08:34:07 51°14.174 2°55.368 4.3 326 7.8 103390 77
2009-03-16 08:34:11 51°14.183 2°55.359 4 329 7.8 103390 77
2009-03-16 08:34:17 51°14.197 2°55.345 5.6 325 7.8 103390 76
2009-03-16 08:34:22 51°14.208 2°55.333 5.1 308 7.8 103390 76
2009-03-16 08:34:27 51°14.22 2°55.32 4.7 318 7.8 103390 76
2009-03-16 08:34:32 51°14.231 2°55.306 5.2 304 7.8 103390 76
2009-03-16 08:34:37 51°14.242 2°55.292 4.4 328 7.8 103390 77
2009-03-16 08:34:42 51°14.252 2°55.277 4.4 303 7.8 103390 77
2009-03-16 08:34:47 51°14.263 2°55.262 6.4 325 7.8 103390 76
2009-03-16 08:34:51 51°14.271 2°55.249 5.6 306 7.8 103390 76
2009-03-16 08:34:57 51°14.283 2°55.23 6 324 7.9 103390 76
2009-03-16 08:35:03 51°14.295 2°55.209 5.8 320 7.9 103390 76
2009-03-16 08:35:07 51°14.302 2°55.195 6.5 317 7.9 103390 76
2009-03-16 08:35:11 51°14.31 2°55.181 5.8 311 7.9 103390 76
2009-03-16 08:35:17 51°14.321 2°55.16 7.1 323 7.9 103390 76
2009-03-16 08:35:22 51°14.331 2°55.142 5.8 304 7.9 103390 76
2009-03-16 08:35:27 51°14.34 2°55.124 7.4 327 7.9 103390 76
2009-03-16 08:35:32 51°14.35 2°55.106 6.2 309 7.9 103390 76
2009-03-16 08:35:37 51°14.359 2°55.087 7.4 317 7.9 103390 76
2009-03-16 08:35:42 51°14.368 2°55.068 6.8 305 7.9 103390 76
2009-03-16 08:35:47 51°14.377 2°55.05 6.4 317 7.9 103390 75
2009-03-16 08:35:51 51°14.385 2°55.035 6.6 306 7.9 103390 75
2009-03-16 08:35:57 51°14.397 2°55.013 6.5 316 8 103380 75
2009-03-16 08:36:02 51°14.406 2°54.994 7.7 309 8 103380 75
2009-03-16 08:36:07 51°14.415 2°54.975 6.5 21 8 103380 76
2009-03-16 08:36:11 51°14.421 2°54.959 6.2 304 8 103380 76
2009-03-16 08:36:17 51°14.431 2°54.934 7.6 21 8 103390 76
2009-03-16 08:36:22 51°14.439 2°54.914 6.6 309 8 103390 76
2009-03-16 08:36:27 51°14.447 2°54.893 7.6 23 7.9 103390 75
2009-03-16 08:36:31 51°14.453 2°54.875 6.9 310 7.9 103390 75
2009-03-16 08:36:37 51°14.461 2°54.849 7.7 21 7.9 103380 76
2009-03-16 08:36:42 51°14.467 2°54.827 7.6 304 7.9 103380 76
2009-03-16 08:36:47 51°14.474 2°54.804 7.6 24 7.9 103380 75
2009-03-16 08:36:51 51°14.48 2°54.786 7 310 7.9 103380 75
2009-03-16 08:36:57 51°14.488 2°54.759 6.6 316 7.9 103380 76
2009-03-16 08:37:02 51°14.495 2°54.737 7.8 309 7.9 103380 76
2009-03-16 08:37:07 51°14.502 2°54.714 6.8 316 7.9 103380 76
2009-03-16 08:37:11 51°14.508 2°54.696 6.7 310 7.9 103380 76
2009-03-16 08:37:16 51°14.515 2°54.673 6.9 318 7.9 103380 76
2009-03-16 08:37:21 51°14.522 2°54.651 6.7 303 7.9 103380 76
2009-03-16 08:37:27 51°14.53 2°54.623 6.6 317 7.9 103380 76
2009-03-16 08:37:32 51°14.536 2°54.6 6.4 308 7.9 103380 76
2009-03-16 08:37:37 51°14.543 2°54.576 7 318 7.9 103380 77
2009-03-16 08:37:42 51°14.549 2°54.553 7.6 305 7.9 103380 77
2009-03-16 08:37:47 51°14.556 2°54.529 7.7 317 7.9 103380 77
2009-03-16 08:37:52 51°14.562 2°54.505 6.9 310 7.9 103380 77
2009-03-16 08:37:57 51°14.569 2°54.482 7.9 316 7.8 103390 77
2009-03-16 08:38:02 51°14.575 2°54.458 7.9 305 7.8 103390 77
2009-03-16 08:38:07 51°14.582 2°54.434 7.9 317 7.8 103380 77
2009-03-16 08:38:12 51°14.588 2°54.41 7.8 305 7.8 103380 77
2009-03-16 08:38:16 51°14.594 2°54.39 8 318 7.8 103380 77
2009-03-16 08:38:21 51°14.6 2°54.367 7.1 302 7.8 103380 77
2009-03-16 08:38:27 51°14.608 2°54.338 7.9 319 7.8 103380 77
2009-03-16 08:38:32 51°14.615 2°54.314 8.2 306 7.8 103380 77
2009-03-16 08:38:37 51°14.621 2°54.29 8 319 7.8 103380 78
2009-03-16 08:38:42 51°14.628 2°54.266 8.2 307 7.8 103380 78
2009-03-16 08:38:47 51°14.634 2°54.242 7.1 319 7.8 103380 78
2009-03-16 08:38:52 51°14.641 2°54.218 6.6 301 7.8 103380 78
2009-03-16 08:38:56 51°14.647 2°54.199 6.4 317 7.8 103380 79
2009-03-16 08:39:02 51°14.658 2°54.174 5.8 304 7.8 103380 79
2009-03-16 08:39:07 51°14.668 2°54.155 5.7 24 7.7 103380 79
2009-03-16 08:39:12 51°14.679 2°54.139 5.9 309 7.7 103380 79
2009-03-16 08:39:17 51°14.691 2°54.125 5.2 19 7.7 103380 79
2009-03-16 08:39:22 51°14.704 2°54.114 4.7 309 7.7 103380 79
2009-03-16 08:39:27 51°14.717 2°54.105 3.8 20 7.7 103380 79
2009-03-16 08:39:32 51°14.73 2°54.098 3.6 304 7.7 103380 79
2009-03-16 08:39:37 51°14.743 2°54.094 3.5 24 7.7 103390 79
2009-03-16 08:39:42 51°14.756 2°54.093 2.8 303 7.7 103390 79
2009-03-16 08:39:47 51°14.769 2°54.094 2.6 25 7.6 103380 79
2009-03-16 08:39:52 51°14.781 2°54.098 2.4 310 7.6 103380 79
2009-03-16 08:39:57 51°14.793 2°54.104 2.2 324 7.6 103390 79
2009-03-16 08:40:02 51°14.803 2°54.114 1.6 326 7.6 103390 79
2009-03-16 08:40:07 51°14.813 2°54.125 2.1 335 7.6 103390 79
2009-03-16 08:40:12 51°14.821 2°54.139 1.9 341 7.6 103390 79
2009-03-16 08:40:17 51°14.826 2°54.155 2.4 347 7.6 103390 79
2009-03-16 08:40:22 51°14.831 2°54.172 2.4 350 7.6 103390 79
2009-03-16 08:40:27 51°14.833 2°54.19 3.4 355 7.6 103400 79
2009-03-16 08:40:32 51°14.834 2°54.208 3.5 355 7.6 103400 79
2009-03-16 08:40:37 51°14.832 2°54.226 4.2 353 7.6 103390 79
2009-03-16 08:40:41 51°14.83 2°54.241 4.7 355 7.6 103390 79
2009-03-16 08:40:47 51°14.824 2°54.261 4.9 351 7.6 103390 80
2009-03-16 08:40:52 51°14.818 2°54.276 5.8 351 7.6 103390 80
2009-03-16 08:40:57 51°14.809 2°54.29 5.7 349 7.6 103400 79
2009-03-16 08:41:02 51°14.8 2°54.303 6 347 7.6 103400 79
2009-03-16 08:41:07 51°14.789 2°54.312 7.1 346 7.5 103390 80
2009-03-16 08:41:12 51°14.777 2°54.321 6.8 343 7.5 103390 80
2009-03-16 08:41:17 51°14.763 2°54.328 7.1 344 7.5 103390 79
2009-03-16 08:41:22 51°14.75 2°54.333 8.1 341 7.5 103390 79
2009-03-16 08:41:27 51°14.735 2°54.335 7.4 340 7.4 103390 79
2009-03-16 08:41:32 51°14.72 2°54.336 8.6 339 7.4 103390 79
2009-03-16 08:41:36 51°14.707 2°54.334 8.7 338 7.4 103380 79
2009-03-16 08:41:42 51°14.689 2°54.33 9.1 338 7.4 103380 79
2009-03-16 08:41:47 51°14.673 2°54.324 8.2 337 7.4 103380 80
2009-03-16 08:41:52 51°14.657 2°54.317 9.2 337 7.4 103380 80
2009-03-16 08:41:56 51°14.644 2°54.309 8 336 7.4 103380 80
2009-03-16 08:42:02 51°14.626 2°54.297 8.2 335 7.4 103380 80
2009-03-16 08:42:07 51°14.61 2°54.284 8.5 334 7.4 103380 80
2009-03-16 08:42:12 51°14.595 2°54.269 8.4 333 7.4 103380 80
2009-03-16 08:42:17 51°14.581 2°54.253 9.3 333 7.4 103380 81
2009-03-16 08:42:22 51°14.567 2°54.236 8.6 333 7.4 103380 81
2009-03-16 08:42:27 51°14.553 2°54.219 8.6 333 7.4 103380 80
2009-03-16 08:42:32 51°14.539 2°54.2 9.8 332 7.4 103380 80
2009-03-16 08:42:37 51°14.526 2°54.182 9.5 334 7.4 103380 81
2009-03-16 08:42:42 51°14.511 2°54.165 8.8 333 7.4 103380 81
2009-03-16 08:42:47 51°14.497 2°54.148 9.9 332 7.4 103380 81
2009-03-16 08:42:52 51°14.482 2°54.131 8.7 333 7.4 103380 81
2009-03-16 08:42:57 51°14.468 2°54.113 9.8 331 7.4 103380 81
2009-03-16 08:43:02 51°14.454 2°54.095 9.6 281 7.4 103380 81
2009-03-16 08:43:07 51°14.441 2°54.077 9.8 331 7.4 103380 81
2009-03-16 08:43:13 51°14.424 2°54.055 9.3 331 7.4 103380 81
2009-03-16 08:43:18 51°14.41 2°54.038 8.4 332 7.4 103380 81
2009-03-16 08:43:22 51°14.398 2°54.024 9.3 333 7.4 103380 81
2009-03-16 08:43:27 51°14.384 2°54.008 8.8 333 7.4 103380 81
2009-03-16 08:43:32 51°14.368 2°53.991 10 331 7.4 103380 81
2009-03-16 08:43:37 51°14.354 2°53.974 8.7 334 7.4 103380 81
2009-03-16 08:43:42 51°14.34 2°53.956 9.7 332 7.4 103380 81
2009-03-16 08:43:47 51°14.325 2°53.939 9.8 333 7.4 103390 81
2009-03-16 08:43:52 51°14.311 2°53.92 9.7 332 7.4 103390 81
2009-03-16 08:43:57 51°14.297 2°53.902 8.7 331 7.4 103380 81
2009-03-16 08:44:02 51°14.283 2°53.884 9.2 330 7.4 103380 81
2009-03-16 08:44:07 51°14.27 2°53.864 9.4 330 7.4 103380 81
2009-03-16 08:44:12 51°14.257 2°53.843 8.9 330 7.4 103380 81
2009-03-16 08:44:17 51°14.244 2°53.823 9.1 329 7.4 103380 81
2009-03-16 08:44:21 51°14.234 2°53.806 10.2 330 7.4 103380 81
2009-03-16 08:44:27 51°14.219 2°53.782 9.8 330 7.4 103380 81
2009-03-16 08:44:32 51°14.205 2°53.762 10.2 329 7.4 103380 81
2009-03-16 08:44:37 51°14.193 2°53.739 9.9 328 7.4 103380 81
2009-03-16 08:44:41 51°14.184 2°53.722 9.9 327 7.4 103380 81
2009-03-16 08:44:47 51°14.17 2°53.694 9.6 328 7.4 103380 81
2009-03-16 08:44:52 51°14.159 2°53.671 8.7 304 7.4 103380 81
2009-03-16 08:44:57 51°14.149 2°53.648 8.4 329 7.4 103380 81
2009-03-16 08:45:02 51°14.137 2°53.625 10.1 285 7.4 103380 81
2009-03-16 08:45:07 51°14.127 2°53.601 9.5 328 7.4 103390 81
2009-03-16 08:45:12 51°14.115 2°53.579 8.9 328 7.4 103390 81
2009-03-16 08:45:17 51°14.105 2°53.555 8.7 329 7.4 103380 81
2009-03-16 08:45:21 51°14.096 2°53.536 9.8 326 7.4 103380 81
2009-03-16 08:45:27 51°14.083 2°53.508 9.8 328 7.4 103380 81
2009-03-16 08:45:33 51°14.07 2°53.48 8.1 326 7.4 103380 81
2009-03-16 08:45:37 51°14.061 2°53.462 8.1 328 7.4 103380 81
2009-03-16 08:45:41 51°14.053 2°53.442 9.8 327 7.4 103380 81
2009-03-16 08:45:47 51°14.04 2°53.414 8.5 327 7.4 103380 81
2009-03-16 08:45:52 51°14.029 2°53.39 9.7 327 7.4 103380 81
2009-03-16 08:45:57 51°14.018 2°53.367 8.4 326 7.4 103380 81
2009-03-16 08:46:02 51°14.007 2°53.343 8.3 283 7.4 103380 81
2009-03-16 08:46:07 51°13.997 2°53.319 9.4 327 7.4 103380 81
2009-03-16 08:46:12 51°13.986 2°53.295 8.5 327 7.4 103380 81
2009-03-16 08:46:17 51°13.975 2°53.272 8.5 329 7.4 103380 81
2009-03-16 08:46:21 51°13.967 2°53.252 8.4 302 7.4 103380 81
2009-03-16 08:46:27 51°13.954 2°53.225 9.7 328 7.4 103380 80
2009-03-16 08:46:32 51°13.943 2°53.2 10 327 7.4 103380 80
2009-03-16 08:46:37 51°13.932 2°53.177 9.6 329 7.4 103380 81
2009-03-16 08:46:41 51°13.923 2°53.158 8.9 327 7.4 103380 81
2009-03-16 08:46:47 51°13.91 2°53.13 10.4 328 7.4 103390 81
2009-03-16 08:46:52 51°13.899 2°53.106 9.8 328 7.4 103390 81
2009-03-16 08:46:57 51°13.888 2°53.083 9.7 329 7.5 103380 81
2009-03-16 08:47:01 51°13.879 2°53.064 10.1 285 7.5 103380 81
2009-03-16 08:47:07 51°13.866 2°53.036 10.2 327 7.5 103390 81
2009-03-16 08:47:12 51°13.855 2°53.012 8.6 328 7.5 103390 81
2009-03-16 08:47:17 51°13.845 2°52.988 9 327 7.5 103380 82
2009-03-16 08:47:21 51°13.836 2°52.969 8.4 329 7.5 103380 82
2009-03-16 08:47:27 51°13.823 2°52.94 8.4 328 7.5 103380 81
2009-03-16 08:47:33 51°13.811 2°52.91 8.3 328 7.5 103380 81
2009-03-16 08:47:37 51°13.802 2°52.892 10 328 7.5 103380 81
2009-03-16 08:47:41 51°13.794 2°52.872 8.3 328 7.5 103380 81
2009-03-16 08:47:47 51°13.781 2°52.843 9.5 327 7.5 103380 81
2009-03-16 08:47:52 51°13.771 2°52.819 8.3 328 7.5 103380 81
2009-03-16 08:47:57 51°13.76 2°52.795 8.6 327 7.5 103380 82
2009-03-16 08:48:02 51°13.75 2°52.771 9.8 280 7.5 103380 82
2009-03-16 08:48:07 51°13.739 2°52.747 8.7 328 7.5 103390 81
2009-03-16 08:48:12 51°13.728 2°52.723 9.9 328 7.5 103390 81
2009-03-16 08:48:17 51°13.718 2°52.699 8.4 329 7.5 103380 81
2009-03-16 08:48:21 51°13.709 2°52.68 8.2 328 7.5 103380 81
2009-03-16 08:48:27 51°13.696 2°52.652 8.2 328 7.5 103390 81
2009-03-16 08:48:32 51°13.686 2°52.628 9.5 326 7.5 103390 81
2009-03-16 08:48:37 51°13.675 2°52.604 9.5 328 7.5 103390 81
2009-03-16 08:48:41 51°13.667 2°52.584 9.8 326 7.5 103390 81
2009-03-16 08:48:47 51°13.654 2°52.556 8.9 327 7.5 103380 81
2009-03-16 08:48:52 51°13.644 2°52.53 10 327 7.5 103380 81
2009-03-16 08:48:57 51°13.633 2°52.507 8.6 328 7.5 103390 81
2009-03-16 08:49:02 51°13.623 2°52.482 8.6 283 7.5 103390 81
2009-03-16 08:49:07 51°13.613 2°52.457 9.9 327 7.6 103380 81
2009-03-16 08:49:12 51°13.603 2°52.433 9.6 302 7.6 103380 81
2009-03-16 08:49:17 51°13.593 2°52.408 10.2 328 7.6 103390 81
2009-03-16 08:49:21 51°13.585 2°52.388 8.4 328 7.6 103390 81
2009-03-16 08:49:27 51°13.573 2°52.358 9.6 328 7.6 103390 81
2009-03-16 08:49:32 51°13.563 2°52.334 9.6 328 7.6 103390 81
2009-03-16 08:49:37 51°13.553 2°52.309 10.1 330 7.6 103390 81
2009-03-16 08:49:41 51°13.545 2°52.289 8.7 326 7.6 103390 81
2009-03-16 08:49:47 51°13.532 2°52.26 9.1 330 7.6 103390 81
2009-03-16 08:49:53 51°13.52 2°52.23 8.7 327 7.6 103390 81
2009-03-16 08:49:57 51°13.512 2°52.211 10.2 329 7.6 103390 81
2009-03-16 08:50:01 51°13.504 2°52.19 10.1 282 7.6 103390 81
2009-03-16 08:50:07 51°13.492 2°52.161 8.7 328 7.6 103390 81
2009-03-16 08:50:13 51°13.479 2°52.132 8.9 328 7.6 103390 81
2009-03-16 08:50:17 51°13.472 2°52.112 8.8 327 7.6 103380 81
2009-03-16 08:50:21 51°13.464 2°52.092 8.9 328 7.6 103380 81
2009-03-16 08:50:27 51°13.453 2°52.062 8.8 327 7.6 103390 81
2009-03-16 08:50:32 51°13.444 2°52.037 8.8 327 7.6 103390 81
2009-03-16 08:50:37 51°13.435 2°52.011 8.8 327 7.6 103390 80
2009-03-16 08:50:41 51°13.428 2°51.991 9.6 327 7.6 103390 80
2009-03-16 08:50:47 51°13.418 2°51.963 9.5 326 7.6 103380 81
2009-03-16 08:50:52 51°13.41 2°51.941 9 327 7.6 103380 81
2009-03-16 08:50:57 51°13.402 2°51.92 8.8 325 7.6 103390 81
2009-03-16 08:51:02 51°13.395 2°51.899 8.3 284 7.6 103390 81
2009-03-16 08:51:07 51°13.39 2°51.878 7.7 324 7.6 103380 81
2009-03-16 08:51:12 51°13.385 2°51.857 6.2 306 7.6 103380 81
2009-03-16 08:51:17 51°13.381 2°51.837 6.1 321 7.7 103390 81
2009-03-16 08:51:21 51°13.379 2°51.821 6 306 7.7 103390 81
2009-03-16 08:51:27 51°13.376 2°51.797 7 320 7.7 103390 80
2009-03-16 08:51:32 51°13.375 2°51.778 6.8 309 7.7 103390 80
2009-03-16 08:51:37 51°13.374 2°51.759 5.6 320 7.7 103390 81
2009-03-16 08:51:41 51°13.373 2°51.744 6.3 309 7.7 103390 81
2009-03-16 08:51:47 51°13.372 2°51.722 5.4 320 7.7 103390 80
2009-03-16 08:51:52 51°13.371 2°51.703 6.6 309 7.7 103390 80
2009-03-16 08:51:57 51°13.37 2°51.685 6.5 319 7.7 103390 80
2009-03-16 08:52:01 51°13.369 2°51.67 5.4 307 7.7 103390 80
2009-03-16 08:52:07 51°13.367 2°51.649 6.7 320 7.7 103390 80
2009-03-16 08:52:12 51°13.366 2°51.63 5.6 304 7.7 103390 80
2009-03-16 08:52:17 51°13.365 2°51.612 5.5 319 7.8 103390 80
2009-03-16 08:52:22 51°13.364 2°51.594 5.6 310 7.8 103390 80
2009-03-16 08:52:27 51°13.362 2°51.576 6.1 319 7.8 103390 81
2009-03-16 08:52:32 51°13.361 2°51.558 6.4 304 7.8 103390 81
2009-03-16 08:52:37 51°13.36 2°51.54 6.7 317 7.8 103390 80
2009-03-16 08:52:42 51°13.359 2°51.522 6.9 305 7.8 103390 80
2009-03-16 08:52:47 51°13.358 2°51.504 6.6 317 7.8 103400 80
2009-03-16 08:52:52 51°13.357 2°51.486 5.7 307 7.8 103400 80
2009-03-16 08:52:57 51°13.356 2°51.468 5.6 319 7.8 103390 80
2009-03-16 08:53:02 51°13.355 2°51.45 6.8 310 7.8 103390 80
2009-03-16 08:53:07 51°13.354 2°51.432 7.1 316 7.8 103390 81
2009-03-16 08:53:12 51°13.353 2°51.414 5.7 309 7.8 103390 81
2009-03-16 08:53:17 51°13.352 2°51.396 6.3 317 7.8 103390 81
2009-03-16 08:53:22 51°13.353 2°51.378 5.4 309 7.8 103390 81
2009-03-16 08:53:27 51°13.353 2°51.361 5.8 19 7.8 103390 80
2009-03-16 08:53:32 51°13.356 2°51.345 5.3 303 7.8 103390 80
2009-03-16 08:53:37 51°13.358 2°51.33 4.1 22 7.8 103390 80
2009-03-16 08:53:41 51°13.362 2°51.319 4.8 303 7.8 103390 80
2009-03-16 08:53:47 51°13.366 2°51.303 3.8 21 7.8 103390 80
2009-03-16 08:53:52 51°13.37 2°51.29 3.8 307 7.8 103390 80
2009-03-16 08:53:57 51°13.374 2°51.278 4.3 20 7.8 103390 80
2009-03-16 08:54:02 51°13.378 2°51.267 4.3 310 7.8 103390 80
2009-03-16 08:54:07 51°13.381 2°51.256 3.3 25 7.8 103390 80
2009-03-16 08:54:12 51°13.385 2°51.246 3.7 302 7.8 103390 80
2009-03-16 08:54:17 51°13.388 2°51.236 3.7 27 7.9 103390 80
2009-03-16 08:54:22 51°13.392 2°51.227 3 303 7.9 103390 80
2009-03-16 08:54:27 51°13.395 2°51.218 3.6 21 7.9 103400 80
2009-03-16 08:54:32 51°13.398 2°51.21 2.7 304 7.9 103400 80
2009-03-16 08:54:37 51°13.401 2°51.202 3.4 27 7.9 103390 80
2009-03-16 08:54:42 51°13.405 2°51.194 2.8 301 7.9 103390 80
2009-03-16 08:54:47 51°13.408 2°51.187 3.2 21 7.9 103390 80
2009-03-16 08:54:52 51°13.411 2°51.18 2.7 309 7.9 103390 80
2009-03-16 08:54:57 51°13.414 2°51.174 2.5 247 7.9 103390 80
2009-03-16 08:55:02 51°13.417 2°51.168 2.6 307 7.9 103390 80
2009-03-16 08:55:07 51°13.419 2°51.162 2.4 20 8 103400 80
2009-03-16 08:55:12 51°13.422 2°51.157 2.9 309 8 103400 80
2009-03-16 08:55:17 51°13.425 2°51.152 2.8 252 8 103400 81
2009-03-16 08:55:22 51°13.428 2°51.147 2.5 306 8 103400 81
2009-03-16 08:55:27 51°13.43 2°51.142 3 255 8 103400 80
2009-03-16 08:55:33 51°13.433 2°51.136 3 303 8 103400 80
2009-03-16 08:55:37 51°13.435 2°51.133 2.8 258 8 103390 80
2009-03-16 08:55:42 51°13.438 2°51.129 2.2 304 8 103390 80
2009-03-16 08:55:47 51°13.44 2°51.125 2.5 259 8 103400 81
2009-03-16 08:55:52 51°13.442 2°51.12 1.8 308 8 103400 81
2009-03-16 08:55:57 51°13.444 2°51.117 2.2 261 8 103390 80
2009-03-16 08:56:02 51°13.447 2°51.113 1.5 303 8 103390 80
2009-03-16 08:56:07 51°13.449 2°51.11 2.4 262 8.1 103390 80
2009-03-16 08:56:12 51°13.451 2°51.106 1.6 305 8.1 103390 80
2009-03-16 08:56:17 51°13.453 2°51.103 1.8 264 8.1 103390 81
2009-03-16 08:56:22 51°13.455 2°51.099 1.9 310 8.1 103390 81
2009-03-16 08:56:26 51°13.456 2°51.097 1.9 267 8.1 103400 80
2009-03-16 08:56:32 51°13.459 2°51.093 1.9 305 8.1 103400 80
2009-03-16 08:56:37 51°13.46 2°51.091 2.2 269 8.1 103400 80
2009-03-16 08:56:42 51°13.462 2°51.088 2 303 8.1 103400 80
2009-03-16 08:56:46 51°13.463 2°51.086 2.1 270 8.1 103400 81
2009-03-16 08:56:52 51°13.465 2°51.083 1.8 304 8.1 103400 81
2009-03-16 08:56:57 51°13.467 2°51.08 2.1 270 8.1 103400 80
2009-03-16 08:57:02 51°13.468 2°51.077 1.9 52 8.1 103400 80
2009-03-16 08:57:07 51°13.47 2°51.075 2 23 8.1 103390 80
2009-03-16 08:57:12 51°13.47 2°51.072 2.1 56 8.1 103390 80
2009-03-16 08:57:17 51°13.471 2°51.069 1.8 18 8.1 103400 80
2009-03-16 08:57:22 51°13.471 2°51.067 2.1 57 8.1 103400 80
2009-03-16 08:57:26 51°13.472 2°51.065 2.2 19 8.1 103400 80
2009-03-16 08:57:32 51°13.472 2°51.062 2.2 55 8.1 103400 80
2009-03-16 08:57:37 51°13.472 2°51.059 2.1 26 8.2 103400 80
2009-03-16 08:57:42 51°13.472 2°51.057 2.3 52 8.2 103400 80
2009-03-16 08:57:46 51°13.472 2°51.054 2.1 28 8.2 103400 80
2009-03-16 08:57:52 51°13.473 2°51.051 2.3 53 8.2 103400 80
2009-03-16 08:57:57 51°13.473 2°51.049 2 27 8.2 103400 80
2009-03-16 08:58:02 51°13.473 2°51.047 2.3 55 8.2 103400 80
2009-03-16 08:58:06 51°13.473 2°51.045 2.2 20 8.2 103400 80
2009-03-16 08:58:12 51°13.473 2°51.042 2.3 52 8.2 103400 80
2009-03-16 08:58:17 51°13.473 2°51.039 2.2 22 8.2 103400 80
2009-03-16 08:58:22 51°13.474 2°51.037 2.3 55 8.2 103400 80
2009-03-16 08:58:27 51°13.474 2°51.034 2.2 24 8.2 103400 80
2009-03-16 08:58:32 51°13.474 2°51.032 2.4 57 8.2 103400 80
2009-03-16 08:58:37 51°13.474 2°51.03 2.1 20 8.2 103400 80
2009-03-16 08:58:42 51°13.474 2°51.027 2 56 8.2 103400 80
2009-03-16 08:58:46 51°13.475 2°51.025 1.9 26 8.1 103400 80
2009-03-16 08:58:52 51°13.475 2°51.023 1.9 56 8.1 103400 80
2009-03-16 08:58:57 51°13.475 2°51.02 2 26 8.1 103400 79
2009-03-16 08:59:02 51°13.475 2°51.018 2.3 56 8.1 103400 79
2009-03-16 08:59:07 51°13.475 2°51.015 2.2 25 8.1 103400 80
2009-03-16 08:59:12 51°13.475 2°51.012 2.3 56 8.1 103400 80
2009-03-16 08:59:17 51°13.475 2°51.01 2.1 27 8.1 103400 79
2009-03-16 08:59:22 51°13.475 2°51.008 2.2 53 8.1 103400 79
2009-03-16 08:59:27 51°13.475 2°51.005 2.1 20 8.1 103400 79
2009-03-16 08:59:32 51°13.475 2°51.003 2.1 49 8.1 103400 79
2009-03-16 08:59:37 51°13.475 2°51 2.5 20 8.1 103400 79
2009-03-16 08:59:42 51°13.475 2°50.998 2 56 8.1 103400 79
2009-03-16 08:59:47 51°13.475 2°50.995 2.3 19 8.1 103400 80
2009-03-16 08:59:52 51°13.475 2°50.993 2.2 58 8.1 103400 80
2009-03-16 08:59:57 51°13.475 2°50.991 2.3 27 8.1 103400 79
2009-03-16 09:00:02 51°13.476 2°50.988 2.5 55 8.1 103400 79
2009-03-16 09:00:07 51°13.476 2°50.986 2.2 26 8.1 103400 80
2009-03-16 09:00:12 51°13.476 2°50.983 2.1 56 8.1 103400 80
2009-03-16 09:00:17 51°13.476 2°50.981 2.1 25 8 103400 79
2009-03-16 09:00:22 51°13.476 2°50.979 2.2 50 8 103400 79
2009-03-16 09:00:26 51°13.476 2°50.977 2.2 19 8 103400 80
2009-03-16 09:00:32 51°13.476 2°50.974 2.1 52 8 103400 80
2009-03-16 09:00:37 51°13.475 2°50.971 2.4 20 8 103400 80
2009-03-16 09:00:42 51°13.475 2°50.969 2.1 50 8 103400 80
2009-03-16 09:00:46 51°13.475 2°50.967 2.3 20 8 103400 80
2009-03-16 09:00:52 51°13.475 2°50.964 2.3 56 8 103400 80
2009-03-16 09:00:57 51°13.475 2°50.961 2.3 26 8 103400 80
2009-03-16 09:01:02 51°13.475 2°50.959 2.2 55 8 103400 80
2009-03-16 09:01:07 51°13.475 2°50.957 2.3 23 8 103400 80
2009-03-16 09:01:12 51°13.475 2°50.954 2 52 8 103400 80
2009-03-16 09:01:17 51°13.475 2°50.952 2.1 25 8 103400 80
2009-03-16 09:01:22 51°13.475 2°50.949 2.1 52 8 103400 80
2009-03-16 09:01:27 51°13.475 2°50.947 2.3 28 8 103400 80
2009-03-16 09:01:32 51°13.475 2°50.944 2.1 58 8 103400 80
2009-03-16 09:01:37 51°13.475 2°50.942 2.3 21 8 103400 79
2009-03-16 09:01:42 51°13.475 2°50.94 2.2 50 8 103400 79
2009-03-16 09:01:47 51°13.475 2°50.937 2.2 21 8 103400 80
2009-03-16 09:01:52 51°13.475 2°50.935 2.1 50 8 103400 80
2009-03-16 09:01:57 51°13.475 2°50.933 2.2 27 8 103400 80
2009-03-16 09:02:02 51°13.475 2°50.93 2.2 74 8 103400 80
2009-03-16 09:02:07 51°13.475 2°50.928 2.2 22 8 103400 80
2009-03-16 09:02:13 51°13.475 2°50.925 2.3 56 8 103400 80
2009-03-16 09:02:17 51°13.475 2°50.923 2.1 18 8 103400 80
2009-03-16 09:02:22 51°13.475 2°50.921 2.3 56 8 103400 80
2009-03-16 09:02:27 51°13.475 2°50.918 2.2 22 8 103400 80
2009-03-16 09:02:32 51°13.475 2°50.916 2.2 54 8 103400 80
2009-03-16 09:02:37 51°13.475 2°50.914 2.2 22 8.1 103400 80
2009-03-16 09:02:42 51°13.474 2°50.911 2.1 55 8.1 103400 80
2009-03-16 09:02:47 51°13.474 2°50.909 2.1 19 8 103400 80
2009-03-16 09:02:52 51°13.474 2°50.907 2.2 55 8 103400 80
2009-03-16 09:02:57 51°13.474 2°50.904 1.9 26 8.1 103400 80
2009-03-16 09:03:01 51°13.474 2°50.902 2.1 83 8.1 103400 80
2009-03-16 09:03:07 51°13.473 2°50.9 1.9 27 8.1 103400 80
2009-03-16 09:03:12 51°13.473 2°50.897 2 56 8.1 103400 80
2009-03-16 09:03:17 51°13.472 2°50.895 2.1 25 8.1 103400 80
2009-03-16 09:03:22 51°13.472 2°50.893 1.9 58 8.1 103400 80
2009-03-16 09:03:27 51°13.471 2°50.891 1.9 27 8.1 103400 80
2009-03-16 09:03:32 51°13.47 2°50.888 2.2 51 8.1 103400 80
2009-03-16 09:03:37 51°13.469 2°50.886 2 28 8.1 103400 80
2009-03-16 09:03:42 51°13.468 2°50.884 1.9 52 8.1 103400 80
2009-03-16 09:03:47 51°13.467 2°50.881 1.9 22 8.1 103400 80
2009-03-16 09:03:52 51°13.466 2°50.879 2.3 51 8.1 103400 80
2009-03-16 09:03:57 51°13.465 2°50.877 2.3 28 8.1 103400 80
2009-03-16 09:04:02 51°13.464 2°50.875 2.4 54 8.1 103400 80
2009-03-16 09:04:07 51°13.463 2°50.873 2.5 25 8.1 103400 80
2009-03-16 09:04:12 51°13.461 2°50.871 2.6 56 8.1 103400 80
2009-03-16 09:04:17 51°13.46 2°50.868 2.4 20 8.1 103400 80
2009-03-16 09:04:22 51°13.458 2°50.866 2.5 49 8.1 103400 80
2009-03-16 09:04:27 51°13.456 2°50.864 2.3 25 8.1 103400 80
2009-03-16 09:04:32 51°13.455 2°50.862 2.6 57 8.1 103400 80
2009-03-16 09:04:37 51°13.453 2°50.859 2.6 21 8.1 103400 80
2009-03-16 09:04:42 51°13.451 2°50.857 2.5 56 8.1 103400 80
2009-03-16 09:04:47 51°13.449 2°50.855 2.5 23 8.1 103400 80
2009-03-16 09:04:52 51°13.448 2°50.853 2.4 55 8.1 103400 80
2009-03-16 09:04:57 51°13.446 2°50.85 2.7 20 8.1 103400 80
2009-03-16 09:05:02 51°13.444 2°50.848 2.3 82 8.1 103400 80
2009-03-16 09:05:07 51°13.442 2°50.845 2.4 22 8.1 103400 80
2009-03-16 09:05:12 51°13.44 2°50.843 2.5 49 8.1 103400 80
2009-03-16 09:05:17 51°13.439 2°50.841 2.5 25 8.1 103400 80
2009-03-16 09:05:21 51°13.437 2°50.839 2.4 50 8.1 103400 80
2009-03-16 09:05:27 51°13.436 2°50.837 2.4 25 8.1 103400 80
2009-03-16 09:05:32 51°13.434 2°50.835 2.5 58 8.1 103400 80
2009-03-16 09:05:37 51°13.432 2°50.832 2.6 25 8.1 103410 80
2009-03-16 09:05:42 51°13.431 2°50.83 2.7 51 8.1 103410 80
2009-03-16 09:05:47 51°13.429 2°50.828 2.6 19 8.1 103410 80
2009-03-16 09:05:52 51°13.428 2°50.826 2.6 55 8.1 103410 80
2009-03-16 09:05:57 51°13.426 2°50.824 2.4 26 8.1 103410 80
2009-03-16 09:06:02 51°13.425 2°50.821 2.7 55 8.1 103410 80
2009-03-16 09:06:07 51°13.423 2°50.819 2.6 26 8.1 103410 80
2009-03-16 09:06:12 51°13.422 2°50.817 2.9 56 8.1 103410 80
2009-03-16 09:06:17 51°13.42 2°50.814 2.9 19 8.1 103410 80
2009-03-16 09:06:22 51°13.418 2°50.812 2.8 56 8.1 103410 80
2009-03-16 09:06:27 51°13.417 2°50.809 2.4 25 8.1 103410 80
2009-03-16 09:06:32 51°13.416 2°50.807 2.3 51 8.1 103410 80
2009-03-16 09:06:37 51°13.414 2°50.805 2.5 21 8.1 103410 80
2009-03-16 09:06:42 51°13.412 2°50.802 2.9 55 8.1 103410 80
2009-03-16 09:06:47 51°13.411 2°50.8 2.6 18 8.1 103400 80
2009-03-16 09:06:52 51°13.409 2°50.797 2.4 56 8.1 103400 80
2009-03-16 09:06:57 51°13.408 2°50.795 2.8 26 8 103410 80
2009-03-16 09:07:02 51°13.407 2°50.792 2.8 74 8 103410 80
2009-03-16 09:07:06 51°13.405 2°50.79 2.6 19 8 103410 80
2009-03-16 09:07:12 51°13.404 2°50.787 2.4 57 8 103410 80
2009-03-16 09:07:17 51°13.402 2°50.785 2.4 25 8 103410 80
2009-03-16 09:07:22 51°13.401 2°50.782 2.6 58 8 103410 80
2009-03-16 09:07:27 51°13.399 2°50.779 2.8 25 8 103410 80
2009-03-16 09:07:32 51°13.398 2°50.777 2.9 56 8 103410 80
2009-03-16 09:07:37 51°13.396 2°50.774 2.9 24 8 103410 80
2009-03-16 09:07:42 51°13.395 2°50.771 2.7 57 8 103410 80
2009-03-16 09:07:47 51°13.393 2°50.769 2.6 28 8 103410 80
2009-03-16 09:07:53 51°13.392 2°50.766 2.7 58 8 103410 80
2009-03-16 09:07:57 51°13.391 2°50.763 2.7 25 8 103410 80
2009-03-16 09:08:02 51°13.389 2°50.761 2.6 52 8 103410 80
2009-03-16 09:08:07 51°13.388 2°50.758 2.8 27 8 103410 79
2009-03-16 09:08:12 51°13.386 2°50.756 2.5 50 8 103410 79
2009-03-16 09:08:17 51°13.385 2°50.753 2.6 20 8 103410 79
2009-03-16 09:08:22 51°13.384 2°50.75 2.7 57 8 103410 79
2009-03-16 09:08:27 51°13.383 2°50.748 2.6 25 8 103410 80
2009-03-16 09:08:32 51°13.381 2°50.745 3 58 8 103410 80
2009-03-16 09:08:37 51°13.38 2°50.742 2.5 27 8 103410 80
2009-03-16 09:08:42 51°13.378 2°50.739 2.7 58 8 103410 80
2009-03-16 09:08:47 51°13.377 2°50.737 2.9 21 8 103410 80
2009-03-16 09:08:52 51°13.376 2°50.734 2.6 56 8 103410 80
2009-03-16 09:08:57 51°13.375 2°50.732 2.5 25 8 103410 80
2009-03-16 09:09:02 51°13.374 2°50.729 2.3 55 8 103410 80
2009-03-16 09:09:07 51°13.373 2°50.726 2.3 24 8 103410 80
2009-03-16 09:09:12 51°13.371 2°50.724 2.4 51 8 103410 80
2009-03-16 09:09:17 51°13.371 2°50.721 2.4 19 8 103410 80
2009-03-16 09:09:21 51°13.37 2°50.72 2.3 56 8 103410 80
2009-03-16 09:09:27 51°13.369 2°50.717 2.4 19 8 103410 80
2009-03-16 09:09:32 51°13.368 2°50.715 2.2 52 8 103410 80
2009-03-16 09:09:37 51°13.368 2°50.712 2.2 20 8 103410 80
2009-03-16 09:09:42 51°13.367 2°50.71 2.2 51 8 103410 80
2009-03-16 09:09:47 51°13.366 2°50.709 2.3 25 8 103410 80
2009-03-16 09:09:52 51°13.366 2°50.706 1.9 57 8 103410 80
2009-03-16 09:09:57 51°13.365 2°50.704 2.2 19 8 103400 80
2009-03-16 09:10:02 51°13.365 2°50.703 2 58 8 103400 80
2009-03-16 09:10:06 51°13.364 2°50.701 2 27 8 103410 80
2009-03-16 09:10:12 51°13.364 2°50.699 2.1 58 8 103410 80
2009-03-16 09:10:17 51°13.364 2°50.698 1.7 25 8 103410 80
2009-03-16 09:10:22 51°13.364 2°50.696 1.9 56 8 103410 80
2009-03-16 09:10:27 51°13.364 2°50.695 1.8 21 7.9 103410 80
2009-03-16 09:10:32 51°13.364 2°50.694 1.6 53 7.9 103410 80
2009-03-16 09:10:37 51°13.364 2°50.693 1.6 21 7.9 103410 80
2009-03-16 09:10:42 51°13.364 2°50.691 1.6 59 7.9 103410 80
2009-03-16 09:10:47 51°13.364 2°50.69 1.7 20 7.9 103410 80
2009-03-16 09:10:52 51°13.365 2°50.69 1.5 54 7.9 103410 80
2009-03-16 09:10:57 51°13.365 2°50.689 1.7 29 7.9 103410 80
2009-03-16 09:11:02 51°13.365 2°50.688 1.6 59 7.9 103410 80
2009-03-16 09:11:07 51°13.365 2°50.688 1.5 22 7.9 103410 80
2009-03-16 09:11:12 51°13.366 2°50.687 1.5 49 7.9 103410 80
2009-03-16 09:11:17 51°13.366 2°50.687 1.5 27 7.9 103410 80
2009-03-16 09:11:22 51°13.367 2°50.687 1.6 57 7.9 103410 80
2009-03-16 09:11:27 51°13.368 2°50.686 1.4 21 7.9 103410 80
2009-03-16 09:11:33 51°13.369 2°50.686 1.6 56 7.9 103410 80
2009-03-16 09:11:37 51°13.369 2°50.686 1.7 27 7.9 103410 80
2009-03-16 09:11:42 51°13.37 2°50.685 1.6 49 7.9 103410 80
2009-03-16 09:11:47 51°13.371 2°50.686 1.6 25 7.9 103410 80
2009-03-16 09:11:52 51°13.371 2°50.686 1.6 51 7.9 103410 80
2009-03-16 09:11:57 51°13.372 2°50.686 1.5 26 7.9 103410 80
2009-03-16 09:12:02 51°13.373 2°50.686 1.5 55 7.9 103410 80
2009-03-16 09:12:07 51°13.374 2°50.687 1.6 18 8 103410 80
2009-03-16 09:12:12 51°13.375 2°50.687 1.6 57 8 103410 80
2009-03-16 09:12:17 51°13.376 2°50.688 1.5 25 7.9 103410 80
2009-03-16 09:12:21 51°13.377 2°50.688 1.4 55 7.9 103410 80
2009-03-16 09:12:27 51°13.378 2°50.688 1.7 24 8 103400 80
2009-03-16 09:12:32 51°13.379 2°50.688 1.7 58 8 103400 80
2009-03-16 09:12:37 51°13.38 2°50.689 1.6 27 7.9 103410 80
2009-03-16 09:12:42 51°13.381 2°50.689 1.6 52 7.9 103410 80
2009-03-16 09:12:47 51°13.382 2°50.689 1.6 25 8 103410 80
2009-03-16 09:12:52 51°13.383 2°50.689 1.5 59 8 103410 80
2009-03-16 09:12:57 51°13.383 2°50.69 1.6 26 8 103410 81
2009-03-16 09:13:02 51°13.384 2°50.69 1.7 56 8 103410 81
2009-03-16 09:13:07 51°13.385 2°50.69 1.6 26 8 103410 80
2009-03-16 09:13:12 51°13.386 2°50.69 1.7 57 8 103410 80
2009-03-16 09:13:17 51°13.387 2°50.69 1.5 27 8 103410 80
2009-03-16 09:13:22 51°13.388 2°50.69 1.5 54 8 103410 80
2009-03-16 09:13:27 51°13.389 2°50.69 1.6 25 8 103410 80
2009-03-16 09:13:32 51°13.39 2°50.69 1.8 49 8 103410 80
2009-03-16 09:13:37 51°13.391 2°50.69 1.9 27 8 103410 80
2009-03-16 09:13:42 51°13.392 2°50.69 2 49 8 103410 80
2009-03-16 09:13:47 51°13.393 2°50.69 1.9 21 8 103410 80
2009-03-16 09:13:52 51°13.394 2°50.689 1.8 51 8 103410 80
2009-03-16 09:13:57 51°13.395 2°50.689 2 28 8 103410 81
2009-03-16 09:14:02 51°13.396 2°50.689 1.8 55 8 103410 81
2009-03-16 09:14:07 51°13.397 2°50.689 1.9 20 8 103410 80
2009-03-16 09:14:12 51°13.398 2°50.688 1.7 51 8 103410 80
2009-03-16 09:14:17 51°13.398 2°50.688 1.7 20 8 103410 81
2009-03-16 09:14:22 51°13.4 2°50.687 1.7 56 8 103410 81
2009-03-16 09:14:27 51°13.4 2°50.687 1.7 24 8 103410 81
2009-03-16 09:14:32 51°13.401 2°50.687 1.9 51 8 103410 81
2009-03-16 09:14:37 51°13.402 2°50.686 1.8 25 8.1 103410 81
2009-03-16 09:14:42 51°13.403 2°50.685 1.7 306 8.1 103410 81
2009-03-16 09:14:47 51°13.404 2°50.685 1.5 271 8.1 103410 81
2009-03-16 09:14:52 51°13.405 2°50.684 1.7 302 8.1 103410 81
2009-03-16 09:14:57 51°13.406 2°50.684 1.8 270 8.1 103410 81
2009-03-16 09:15:02 51°13.407 2°50.683 1.7 282 8.1 103410 81
2009-03-16 09:15:07 51°13.408 2°50.682 1.6 270 8.1 103410 81
2009-03-16 09:15:12 51°13.409 2°50.682 1.8 307 8.1 103410 81
2009-03-16 09:15:17 51°13.41 2°50.681 1.6 270 8.1 103410 81
2009-03-16 09:15:22 51°13.411 2°50.68 1.5 303 8.1 103410 81
2009-03-16 09:15:27 51°13.412 2°50.68 1.3 265 8.1 103410 81
2009-03-16 09:15:32 51°13.413 2°50.679 1.3 306 8.1 103410 81
2009-03-16 09:15:37 51°13.414 2°50.678 1.3 265 8.1 103410 81
2009-03-16 09:15:42 51°13.415 2°50.677 1.6 304 8.1 103410 81
2009-03-16 09:15:47 51°13.416 2°50.677 1.7 266 8.1 103410 81
2009-03-16 09:15:52 51°13.416 2°50.676 1.7 303 8.1 103410 81
2009-03-16 09:15:57 51°13.417 2°50.676 2 269 8.2 103410 81
2009-03-16 09:16:02 51°13.418 2°50.675 1.9 303 8.2 103410 81
2009-03-16 09:16:06 51°13.419 2°50.675 1.8 269 8.2 103410 81
2009-03-16 09:16:12 51°13.42 2°50.673 2 56 8.2 103410 81
2009-03-16 09:16:17 51°13.421 2°50.673 1.9 23 8.2 103410 81
2009-03-16 09:16:22 51°13.422 2°50.673 1.8 57 8.2 103410 81
2009-03-16 09:16:27 51°13.422 2°50.672 1.9 19 8.2 103410 81
2009-03-16 09:16:32 51°13.423 2°50.671 1.7 55 8.2 103410 81
2009-03-16 09:16:37 51°13.424 2°50.671 1.5 26 8.2 103410 81
2009-03-16 09:16:42 51°13.425 2°50.67 1.8 50 8.2 103410 81
2009-03-16 09:16:47 51°13.425 2°50.67 1.9 20 8.2 103410 81
2009-03-16 09:16:53 51°13.426 2°50.67 1.8 55 8.2 103410 81
2009-03-16 09:16:57 51°13.427 2°50.669 1.7 18 8.2 103410 81
2009-03-16 09:17:02 51°13.427 2°50.669 1.8 76 8.2 103410 81
2009-03-16 09:17:07 51°13.428 2°50.669 1.6 28 8.2 103410 81
2009-03-16 09:17:12 51°13.429 2°50.669 1.1 53 8.2 103410 81
2009-03-16 09:17:17 51°13.43 2°50.67 1.4 25 8.2 103410 81
2009-03-16 09:17:22 51°13.431 2°50.671 1.4 51 8.2 103410 81
2009-03-16 09:17:27 51°13.431 2°50.673 1.3 28 8.2 103410 81
2009-03-16 09:17:32 51°13.432 2°50.674 1.3 50 8.2 103410 81
2009-03-16 09:17:37 51°13.433 2°50.676 1.1 25 8.2 103410 81
2009-03-16 09:17:42 51°13.433 2°50.679 0.8 51 8.2 103410 81
2009-03-16 09:17:46 51°13.433 2°50.681 0.6 28 8.2 103410 81
2009-03-16 09:17:52 51°13.432 2°50.685 0.4 55 8.2 103410 81
2009-03-16 09:17:57 51°13.432 2°50.688 0.4 20 8.1 103400 81
2009-03-16 09:18:02 51°13.432 2°50.692 1.6 39 8.1 103400 81
2009-03-16 09:18:07 51°13.431 2°50.696 1.5 38 8.1 103410 81
2009-03-16 09:18:12 51°13.43 2°50.7 1.3 38 8.1 103410 81
2009-03-16 09:18:17 51°13.429 2°50.704 1.2 38 8.1 103410 81
2009-03-16 09:18:22 51°13.428 2°50.709 1.2 38 8.1 103410 81
2009-03-16 09:18:26 51°13.427 2°50.713 1.2 38 8.1 103410 81
2009-03-16 09:18:32 51°13.425 2°50.719 1.3 34 8.1 103410 81
2009-03-16 09:18:37 51°13.424 2°50.725 1 37 8.2 103410 81
2009-03-16 09:18:42 51°13.423 2°50.731 1 35 8.2 103410 81
2009-03-16 09:18:47 51°13.422 2°50.737 1 34 8.1 103410 81
2009-03-16 09:18:52 51°13.421 2°50.743 1.1 28 8.1 103410 81
2009-03-16 09:18:57 51°13.419 2°50.749 0.8 29 8.1 103410 81
2009-03-16 09:19:02 51°13.418 2°50.756 1 28 8.1 103410 81
2009-03-16 09:19:07 51°13.416 2°50.763 1.1 28 8.1 103400 81
2009-03-16 09:19:12 51°13.415 2°50.77 1 28 8.1 103400 81
2009-03-16 09:19:17 51°13.413 2°50.777 1 28 8.2 103400 81
2009-03-16 09:19:22 51°13.411 2°50.784 0.9 27 8.2 103400 81
2009-03-16 09:19:27 51°13.409 2°50.791 1 27 8.2 103400 81
2009-03-16 09:19:32 51°13.408 2°50.798 1 27 8.2 103400 81
2009-03-16 09:19:37 51°13.406 2°50.805 1.1 27 8.2 103400 81
2009-03-16 09:19:42 51°13.404 2°50.813 1 27 8.2 103400 81
2009-03-16 09:19:47 51°13.403 2°50.82 0.8 27 8.2 103400 81
2009-03-16 09:19:52 51°13.401 2°50.827 0.9 27 8.2 103400 81
2009-03-16 09:19:57 51°13.4 2°50.833 0.7 28 8.2 103400 81
2009-03-16 09:20:02 51°13.399 2°50.839 1 30 8.2 103400 81
2009-03-16 09:20:06 51°13.398 2°50.843 0.7 37 8.2 103400 81
2009-03-16 09:20:12 51°13.397 2°50.849 1 38 8.2 103400 81
2009-03-16 09:20:17 51°13.396 2°50.854 0.9 39 8.2 103410 81
2009-03-16 09:20:22 51°13.395 2°50.858 1.4 39 8.2 103410 81
2009-03-16 09:20:26 51°13.394 2°50.862 1.4 22 8.2 103400 81
2009-03-16 09:20:32 51°13.392 2°50.866 1.4 42 8.2 103400 81
2009-03-16 09:20:37 51°13.391 2°50.869 1.6 41 8.2 103400 81
2009-03-16 09:20:42 51°13.39 2°50.872 1.8 38 8.2 103400 81
2009-03-16 09:20:47 51°13.388 2°50.874 1.7 40 8.2 103400 81
2009-03-16 09:20:52 51°13.387 2°50.876 2 37 8.2 103400 81
2009-03-16 09:20:57 51°13.385 2°50.878 1.8 34 8.2 103400 81
2009-03-16 09:21:02 51°13.383 2°50.879 2.3 38 8.2 103400 81
2009-03-16 09:21:07 51°13.382 2°50.88 2.3 35 8.3 103400 81
2009-03-16 09:21:13 51°13.38 2°50.88 2.3 35 8.3 103400 81
2009-03-16 09:21:17 51°13.379 2°50.88 2.4 33 8.2 103400 81
2009-03-16 09:21:22 51°13.378 2°50.88 2.6 34 8.2 103400 81
2009-03-16 09:21:27 51°13.376 2°50.88 2.4 32 8.3 103400 81
2009-03-16 09:21:32 51°13.375 2°50.879 2.4 29 8.3 103400 81
2009-03-16 09:21:37 51°13.373 2°50.878 2.5 29 8.2 103410 81
2009-03-16 09:21:42 51°13.372 2°50.878 2.7 28 8.2 103410 81
2009-03-16 09:21:47 51°13.37 2°50.877 2.5 29 8.2 103400 81
2009-03-16 09:21:52 51°13.368 2°50.876 2.4 28 8.2 103400 81
2009-03-16 09:21:57 51°13.367 2°50.876 2.7 28 8.2 103400 81
2009-03-16 09:22:02 51°13.365 2°50.874 2.7 27 8.2 103400 81
2009-03-16 09:22:07 51°13.364 2°50.874 2.7 25 8.2 103400 80
2009-03-16 09:22:12 51°13.362 2°50.872 2.5 26 8.2 103400 80
2009-03-16 09:22:17 51°13.361 2°50.871 2.5 26 8.2 103400 81
2009-03-16 09:22:22 51°13.359 2°50.87 2.6 24 8.2 103400 81
2009-03-16 09:22:27 51°13.357 2°50.869 2.6 25 8.2 103400 80
2009-03-16 09:22:32 51°13.356 2°50.868 2.5 22 8.2 103400 80
2009-03-16 09:22:37 51°13.354 2°50.867 2.5 21 8.2 103400 80
2009-03-16 09:22:41 51°13.353 2°50.865 2.8 22 8.2 103400 80
2009-03-16 09:22:47 51°13.351 2°50.864 2.7 22 8.2 103410 81
2009-03-16 09:22:52 51°13.349 2°50.862 2.7 21 8.2 103410 81
2009-03-16 09:22:57 51°13.348 2°50.861 2.8 22 8.2 103410 81
2009-03-16 09:23:02 51°13.346 2°50.859 2.7 21 8.2 103410 81
2009-03-16 09:23:07 51°13.344 2°50.858 2.8 21 8.2 103400 81
2009-03-16 09:23:12 51°13.343 2°50.856 2.8 21 8.2 103400 81
2009-03-16 09:23:17 51°13.341 2°50.855 2.7 22 8.2 103410 81
2009-03-16 09:23:22 51°13.34 2°50.853 2.7 20 8.2 103410 81
2009-03-16 09:23:26 51°13.338 2°50.852 2.6 21 8.2 103410 81
2009-03-16 09:23:32 51°13.337 2°50.85 2.8 18 8.2 103410 81
2009-03-16 09:23:37 51°13.335 2°50.849 2.9 18 8.1 103400 81
2009-03-16 09:23:42 51°13.334 2°50.847 2.9 19 8.1 103400 81
2009-03-16 09:23:46 51°13.332 2°50.845 2.7 19 8.1 103410 81
2009-03-16 09:23:52 51°13.33 2°50.843 2.8 19 8.1 103410 81
2009-03-16 09:23:57 51°13.329 2°50.842 2.8 18 8.1 103410 81
2009-03-16 09:24:02 51°13.327 2°50.84 2.8 17 8.1 103410 81
2009-03-16 09:24:07 51°13.326 2°50.838 2.9 16 8.1 103410 81
2009-03-16 09:24:12 51°13.324 2°50.836 3 15 8.1 103410 81
2009-03-16 09:24:17 51°13.323 2°50.834 2.7 16 8.1 103410 81
2009-03-16 09:24:22 51°13.321 2°50.832 2.8 15 8.1 103410 81
2009-03-16 09:24:27 51°13.319 2°50.831 2.8 17 8.1 103400 81
2009-03-16 09:24:32 51°13.317 2°50.829 2.6 16 8.1 103400 81
2009-03-16 09:24:37 51°13.317 2°50.827 2.8 15 8.1 103410 81
2009-03-16 09:24:42 51°13.315 2°50.825 2.9 15 8.1 103410 81
2009-03-16 09:24:47 51°13.314 2°50.822 2.8 13 8.1 103410 81
2009-03-16 09:24:52 51°13.312 2°50.82 2.8 15 8.1 103410 81
2009-03-16 09:24:57 51°13.311 2°50.819 2.7 16 8.1 103410 81
2009-03-16 09:25:02 51°13.309 2°50.816 2.7 14 8.1 103410 81
2009-03-16 09:25:07 51°13.308 2°50.814 2.8 13 8.1 103400 81
2009-03-16 09:25:13 51°13.306 2°50.812 2.8 15 8.1 103400 81
2009-03-16 09:25:17 51°13.305 2°50.81 2.8 12 8.1 103410 81
2009-03-16 09:25:22 51°13.303 2°50.808 2.9 12 8.1 103410 81
2009-03-16 09:25:27 51°13.302 2°50.806 2.9 9 8.1 103410 81
2009-03-16 09:25:32 51°13.3 2°50.804 2.8 12 8.1 103410 81
2009-03-16 09:25:37 51°13.299 2°50.802 2.8 12 8.1 103410 81
2009-03-16 09:25:42 51°13.297 2°50.799 2.7 11 8.1 103410 81
2009-03-16 09:25:47 51°13.296 2°50.797 2.9 11 8.1 103410 81
2009-03-16 09:25:52 51°13.294 2°50.794 2.9 13 8.1 103410 81
2009-03-16 09:25:57 51°13.292 2°50.792 3.1 9 8 103410 81
2009-03-16 09:26:02 51°13.291 2°50.79 2.9 9 8 103410 81
2009-03-16 09:26:07 51°13.289 2°50.788 2.6 11 8 103410 81
2009-03-16 09:26:12 51°13.288 2°50.785 2.7 10 8 103410 81
2009-03-16 09:26:17 51°13.286 2°50.783 2.8 10 8 103410 81
2009-03-16 09:26:22 51°13.285 2°50.78 2.9 8 8 103410 81
2009-03-16 09:26:27 51°13.283 2°50.778 2.9 9 8 103410 81
2009-03-16 09:26:32 51°13.282 2°50.776 2.9 8 8 103410 81
2009-03-16 09:26:37 51°13.28 2°50.773 2.7 9 8 103400 81
2009-03-16 09:26:42 51°13.279 2°50.771 2.6 9 8 103400 81
2009-03-16 09:26:47 51°13.278 2°50.769 2.9 8 8 103410 82
2009-03-16 09:26:52 51°13.276 2°50.767 3 9 8 103410 82
2009-03-16 09:26:57 51°13.275 2°50.764 2.7 9 8 103410 81
2009-03-16 09:27:02 51°13.273 2°50.762 2.5 8 8 103410 81
2009-03-16 09:27:07 51°13.272 2°50.76 2.6 7 8 103410 81
2009-03-16 09:27:12 51°13.27 2°50.757 2.5 6 8 103410 81
2009-03-16 09:27:17 51°13.269 2°50.755 2.4 7 8 103410 81
2009-03-16 09:27:22 51°13.267 2°50.753 2.6 6 8 103410 81
2009-03-16 09:27:27 51°13.266 2°50.751 2.8 8 7.9 103410 81
2009-03-16 09:27:32 51°13.264 2°50.748 2.5 4 7.9 103410 81
2009-03-16 09:27:37 51°13.263 2°50.745 2.6 7 8 103410 82
2009-03-16 09:27:42 51°13.261 2°50.743 2.2 6 8 103410 82
2009-03-16 09:27:46 51°13.26 2°50.74 2.3 6 8 103410 81
2009-03-16 09:27:52 51°13.259 2°50.738 2.6 8 8 103410 81
2009-03-16 09:27:57 51°13.257 2°50.735 2.4 6 8 103410 82
2009-03-16 09:28:02 51°13.255 2°50.733 2.5 6 8 103410 82
2009-03-16 09:28:06 51°13.254 2°50.731 2.1 7 7.9 103400 82
2009-03-16 09:28:12 51°13.253 2°50.728 2.2 6 7.9 103400 82
2009-03-16 09:28:17 51°13.251 2°50.726 2.4 6 7.9 103410 82
2009-03-16 09:28:22 51°13.25 2°50.723 2.3 5 7.9 103410 82
2009-03-16 09:28:27 51°13.248 2°50.721 2.3 4 7.9 103410 82
2009-03-16 09:28:32 51°13.247 2°50.718 2.1 6 7.9 103410 82
2009-03-16 09:28:37 51°13.245 2°50.716 2.1 6 7.9 103410 82
2009-03-16 09:28:42 51°13.244 2°50.713 2.1 6 7.9 103410 82
2009-03-16 09:28:47 51°13.242 2°50.711 2.1 5 7.9 103410 81
2009-03-16 09:28:52 51°13.241 2°50.708 2.4 7 7.9 103410 81
2009-03-16 09:28:57 51°13.239 2°50.706 2 7 7.9 103410 82
2009-03-16 09:29:02 51°13.238 2°50.703 2.5 5 7.9 103410 82
2009-03-16 09:29:07 51°13.237 2°50.701 2.2 6 7.9 103410 82
2009-03-16 09:29:12 51°13.235 2°50.698 2.6 4 7.9 103410 82
2009-03-16 09:29:17 51°13.234 2°50.696 2.7 3 7.9 103410 82
2009-03-16 09:29:22 51°13.232 2°50.693 2.7 4 7.9 103410 82
2009-03-16 09:29:27 51°13.231 2°50.691 2.4 2 7.9 103410 81
2009-03-16 09:29:33 51°13.229 2°50.688 2.5 5 7.9 103410 81
2009-03-16 09:29:37 51°13.228 2°50.686 2.4 3 7.9 103410 82
2009-03-16 09:29:42 51°13.227 2°50.683 2.4 5 7.9 103410 82
2009-03-16 09:29:47 51°13.225 2°50.681 2.6 1 7.9 103410 82
2009-03-16 09:29:52 51°13.224 2°50.678 2.6 5 7.9 103410 82
2009-03-16 09:29:57 51°13.223 2°50.676 2.6 3 7.9 103410 82
2009-03-16 09:30:02 51°13.221 2°50.673 2 6 7.9 103410 82
2009-03-16 09:30:07 51°13.22 2°50.671 2.6 3 7.9 103410 82
2009-03-16 09:30:12 51°13.218 2°50.668 2.2 5 7.9 103410 82
2009-03-16 09:30:17 51°13.217 2°50.665 2.6 2 7.9 103410 82
2009-03-16 09:30:22 51°13.216 2°50.663 2.7 3 7.9 103410 82
2009-03-16 09:30:27 51°13.214 2°50.66 2.5 2 7.9 103410 82
2009-03-16 09:30:32 51°13.213 2°50.658 2.5 4 7.9 103410 82
2009-03-16 09:30:37 51°13.211 2°50.655 2.4 3 7.9 103410 82
2009-03-16 09:30:42 51°13.21 2°50.653 2.6 -999 7.9 103410 82
2009-03-16 09:30:46 51°13.209 2°50.651 2.2 6 7.9 103410 82
2009-03-16 09:30:52 51°13.207 2°50.648 2.4 3 7.9 103410 82
2009-03-16 09:30:57 51°13.206 2°50.645 2.3 4 7.9 103410 82
2009-03-16 09:31:02 51°13.204 2°50.643 2.4 5 7.9 103410 82
2009-03-16 09:31:06 51°13.203 2°50.641 2.2 6 7.8 103410 82
2009-03-16 09:31:12 51°13.202 2°50.638 2 6 7.8 103410 82
2009-03-16 09:31:17 51°13.2 2°50.635 2.4 3 7.8 103410 82
2009-03-16 09:31:22 51°13.199 2°50.633 2.1 2 7.8 103410 82
2009-03-16 09:31:26 51°13.197 2°50.631 2.3 2 7.8 103410 82
2009-03-16 09:31:32 51°13.196 2°50.628 2.1 3 7.8 103410 82
2009-03-16 09:31:37 51°13.195 2°50.625 2.5 4 7.8 103410 82
2009-03-16 09:31:42 51°13.193 2°50.623 2.6 360 7.8 103410 82
2009-03-16 09:31:47 51°13.192 2°50.62 2.2 5 7.8 103410 82
2009-03-16 09:31:52 51°13.19 2°50.618 2.2 4 7.8 103410 82
2009-03-16 09:31:57 51°13.189 2°50.615 2.2 3 7.8 103410 82
2009-03-16 09:32:02 51°13.188 2°50.612 2.4 1 7.8 103410 82
2009-03-16 09:32:06 51°13.186 2°50.61 2.3 2 7.8 103410 82
2009-03-16 09:32:12 51°13.185 2°50.607 2.4 2 7.8 103410 82
2009-03-16 09:32:17 51°13.183 2°50.605 2.3 3 7.8 103410 82
2009-03-16 09:32:22 51°13.182 2°50.602 2.4 1 7.8 103410 82
2009-03-16 09:32:27 51°13.181 2°50.6 2.2 4 7.8 103410 83
2009-03-16 09:32:32 51°13.179 2°50.597 2.3 2 7.8 103410 83
2009-03-16 09:32:37 51°13.178 2°50.595 2.2 2 7.9 103410 82
2009-03-16 09:32:42 51°13.177 2°50.592 2.4 2 7.9 103410 82
2009-03-16 09:32:46 51°13.176 2°50.59 2.6 -999 7.9 103400 82
2009-03-16 09:32:52 51°13.174 2°50.587 2.1 2 7.9 103400 82
2009-03-16 09:32:57 51°13.173 2°50.584 2.7 1 7.9 103410 82
2009-03-16 09:33:02 51°13.171 2°50.581 2.3 4 7.9 103410 82
2009-03-16 09:33:06 51°13.17 2°50.579 2.2 5 7.8 103410 82
2009-03-16 09:33:12 51°13.169 2°50.576 2.1 4 7.8 103410 82
2009-03-16 09:33:17 51°13.167 2°50.574 2.6 1 7.8 103410 82
2009-03-16 09:33:22 51°13.166 2°50.571 2.5 -999 7.8 103410 82
2009-03-16 09:33:27 51°13.164 2°50.568 2.5 2 7.8 103400 82
2009-03-16 09:33:32 51°13.163 2°50.566 2.2 4 7.8 103400 82
2009-03-16 09:33:37 51°13.162 2°50.563 2.2 2 7.8 103400 82
2009-03-16 09:33:42 51°13.16 2°50.561 2.3 358 7.8 103400 82
2009-03-16 09:33:46 51°13.159 2°50.559 2.4 359 7.8 103410 82
2009-03-16 09:33:52 51°13.158 2°50.556 2.2 2 7.8 103410 82
2009-03-16 09:33:57 51°13.156 2°50.553 2.2 358 7.8 103410 82
2009-03-16 09:34:02 51°13.155 2°50.551 2.2 2 7.8 103410 82
2009-03-16 09:34:07 51°13.154 2°50.548 2.4 360 7.8 103410 82
2009-03-16 09:34:12 51°13.152 2°50.546 2.7 359 7.8 103410 82
2009-03-16 09:34:17 51°13.151 2°50.543 2.4 4 7.8 103410 82
2009-03-16 09:34:22 51°13.149 2°50.541 2.5 2 7.8 103410 82
2009-03-16 09:34:27 51°13.148 2°50.538 2.6 2 7.8 103410 82
2009-03-16 09:34:32 51°13.147 2°50.536 2.7 2 7.8 103410 82
2009-03-16 09:34:37 51°13.145 2°50.533 2.4 2 7.8 103400 82
2009-03-16 09:34:42 51°13.144 2°50.531 2.4 1 7.8 103400 82
2009-03-16 09:34:47 51°13.143 2°50.528 2.1 1 7.8 103400 82
2009-03-16 09:34:52 51°13.141 2°50.526 2.6 358 7.8 103400 82
2009-03-16 09:34:57 51°13.14 2°50.523 2.3 2 7.8 103400 83
2009-03-16 09:35:02 51°13.139 2°50.52 2.4 359 7.8 103400 83
2009-03-16 09:35:07 51°13.137 2°50.518 2.5 358 7.8 103400 82
2009-03-16 09:35:12 51°13.136 2°50.515 2.5 1 7.8 103400 82
2009-03-16 09:35:17 51°13.134 2°50.513 2.7 358 7.8 103400 82
2009-03-16 09:35:22 51°13.133 2°50.511 2.3 1 7.8 103400 82
2009-03-16 09:35:27 51°13.132 2°50.508 2 358 7.8 103400 83
2009-03-16 09:35:33 51°13.13 2°50.505 2.3 359 7.8 103400 83
2009-03-16 09:35:37 51°13.129 2°50.503 2.1 -999 7.8 103400 83
2009-03-16 09:35:42 51°13.128 2°50.5 2.3 358 7.8 103400 83
2009-03-16 09:35:47 51°13.126 2°50.498 2.5 358 7.8 103400 83
2009-03-16 09:35:52 51°13.124 2°50.494 2.9 356 7.8 103400 83
2009-03-16 09:35:57 51°13.122 2°50.492 2.8 354 7.8 103400 83
2009-03-16 09:36:02 51°13.119 2°50.489 3 352 7.8 103400 83
2009-03-16 09:36:07 51°13.116 2°50.486 2.9 353 7.8 103400 82
2009-03-16 09:36:12 51°13.113 2°50.482 2.8 351 7.8 103400 82
2009-03-16 09:36:17 51°13.11 2°50.479 3 350 7.8 103400 83
2009-03-16 09:36:22 51°13.106 2°50.475 3.1 349 7.8 103400 83
2009-03-16 09:36:26 51°13.104 2°50.472 2.8 348 7.8 103400 83
2009-03-16 09:36:32 51°13.099 2°50.466 3.1 346 7.8 103400 83
2009-03-16 09:36:37 51°13.095 2°50.462 3.7 346 7.8 103400 83
2009-03-16 09:36:42 51°13.091 2°50.457 3.7 345 7.8 103400 83
2009-03-16 09:36:47 51°13.087 2°50.452 2.9 342 7.8 103400 82
2009-03-16 09:36:52 51°13.083 2°50.447 3.9 343 7.8 103400 82
2009-03-16 09:36:57 51°13.079 2°50.441 3.3 342 7.8 103400 83
2009-03-16 09:37:02 51°13.074 2°50.435 3.3 284 7.8 103400 83
2009-03-16 09:37:07 51°13.07 2°50.43 3.9 341 7.8 103400 83
2009-03-16 09:37:12 51°13.066 2°50.423 3.4 340 7.8 103400 83
2009-03-16 09:37:17 51°13.061 2°50.416 3.9 339 7.8 103400 83
2009-03-16 09:37:22 51°13.057 2°50.409 3.5 338 7.8 103400 83
2009-03-16 09:37:27 51°13.052 2°50.402 4.1 338 7.8 103400 83
2009-03-16 09:37:33 51°13.048 2°50.393 4.1 334 7.8 103400 83
2009-03-16 09:37:37 51°13.044 2°50.387 4.3 336 7.8 103400 83
2009-03-16 09:37:42 51°13.04 2°50.378 3.4 333 7.8 103400 83
2009-03-16 09:37:47 51°13.036 2°50.37 4.5 335 7.9 103400 83
2009-03-16 09:37:52 51°13.032 2°50.361 3.9 334 7.9 103400 83
2009-03-16 09:37:57 51°13.028 2°50.353 3.9 332 7.9 103400 83
2009-03-16 09:38:02 51°13.024 2°50.344 3.7 278 7.9 103400 83
2009-03-16 09:38:06 51°13.021 2°50.337 4.6 334 7.9 103390 83
2009-03-16 09:38:12 51°13.016 2°50.327 3.8 333 7.9 103390 83
2009-03-16 09:38:17 51°13.012 2°50.318 3.8 335 7.9 103400 83
2009-03-16 09:38:22 51°13.008 2°50.309 3.8 335 7.9 103400 83
2009-03-16 09:38:26 51°13.005 2°50.302 3.9 335 7.9 103400 83
2009-03-16 09:38:32 51°13 2°50.292 3.8 336 7.9 103400 83
2009-03-16 09:38:37 51°12.996 2°50.284 4.3 337 7.9 103390 83
2009-03-16 09:38:42 51°12.991 2°50.276 4.5 337 7.9 103390 83
2009-03-16 09:38:47 51°12.987 2°50.268 3.7 338 8 103390 83
2009-03-16 09:38:52 51°12.983 2°50.26 3.6 337 8 103390 83
2009-03-16 09:38:57 51°12.979 2°50.252 3.7 338 8 103400 83
2009-03-16 09:39:02 51°12.975 2°50.244 3.5 338 8 103400 83
2009-03-16 09:39:07 51°12.971 2°50.237 3.6 337 8 103400 83
2009-03-16 09:39:13 51°12.966 2°50.229 4.3 337 8 103400 83
2009-03-16 09:39:17 51°12.963 2°50.223 4.1 337 8 103390 83
2009-03-16 09:39:22 51°12.959 2°50.216 3.6 338 8 103390 83
2009-03-16 09:39:27 51°12.955 2°50.208 3.6 336 8 103390 83
2009-03-16 09:39:32 51°12.951 2°50.202 3.7 338 8 103390 83
2009-03-16 09:39:37 51°12.948 2°50.194 4.2 337 8.1 103390 83
2009-03-16 09:39:42 51°12.944 2°50.187 3.4 336 8.1 103390 83
2009-03-16 09:39:47 51°12.94 2°50.181 4 339 8.1 103390 83
2009-03-16 09:39:52 51°12.937 2°50.174 3.9 336 8.1 103390 83
2009-03-16 09:39:57 51°12.933 2°50.167 4 334 8.1 103390 82
2009-03-16 09:40:01 51°12.931 2°50.162 3.2 280 8.1 103390 82
2009-03-16 09:40:07 51°12.927 2°50.154 3.2 336 8.1 103390 82
2009-03-16 09:40:13 51°12.923 2°50.146 3.3 336 8.1 103390 82
2009-03-16 09:40:17 51°12.92 2°50.141 3.9 337 8.1 103390 82
2009-03-16 09:40:22 51°12.917 2°50.134 3.6 338 8.1 103390 82
2009-03-16 09:40:27 51°12.914 2°50.127 3 338 8.1 103390 82
2009-03-16 09:40:32 51°12.911 2°50.122 4 337 8.1 103390 82
2009-03-16 09:40:37 51°12.908 2°50.115 3.6 334 8.1 103390 82
2009-03-16 09:40:42 51°12.905 2°50.109 3.8 335 8.1 103390 82
2009-03-16 09:40:46 51°12.903 2°50.104 3.1 333 8.2 103390 82
2009-03-16 09:40:52 51°12.9 2°50.096 2.9 333 8.2 103390 82
2009-03-16 09:40:57 51°12.897 2°50.09 2.9 336 8.2 103400 82
2009-03-16 09:41:02 51°12.894 2°50.084 3.4 335 8.2 103400 82
2009-03-16 09:41:07 51°12.892 2°50.078 2.9 335 8.2 103390 82
2009-03-16 09:41:12 51°12.889 2°50.072 3.6 335 8.2 103390 82
2009-03-16 09:41:17 51°12.886 2°50.066 3.4 335 8.2 103390 82
2009-03-16 09:41:22 51°12.884 2°50.06 3.4 335 8.2 103390 82
2009-03-16 09:41:27 51°12.881 2°50.054 3.6 336 8.2 103390 82
2009-03-16 09:41:33 51°12.878 2°50.048 3 335 8.2 103390 82
2009-03-16 09:41:37 51°12.876 2°50.043 2.8 333 8.2 103390 81
2009-03-16 09:41:42 51°12.874 2°50.037 3 336 8.2 103390 81
2009-03-16 09:41:47 51°12.872 2°50.031 2.9 334 8.2 103390 82
2009-03-16 09:41:52 51°12.869 2°50.026 3.3 338 8.2 103390 82
2009-03-16 09:41:57 51°12.867 2°50.02 3.5 332 8.2 103390 82
2009-03-16 09:42:02 51°12.864 2°50.015 3.4 281 8.2 103390 82
2009-03-16 09:42:07 51°12.862 2°50.009 3.3 335 8.2 103390 82
2009-03-16 09:42:13 51°12.859 2°50.002 3.3 338 8.2 103390 82
2009-03-16 09:42:17 51°12.857 2°49.998 2.9 332 8.2 103390 82
2009-03-16 09:42:22 51°12.855 2°49.993 3.4 337 8.2 103390 82
2009-03-16 09:42:27 51°12.852 2°49.987 3.4 336 8.2 103390 82
2009-03-16 09:42:32 51°12.85 2°49.982 2.6 336 8.2 103390 82
2009-03-16 09:42:37 51°12.847 2°49.977 3.1 337 8.3 103390 82
2009-03-16 09:42:42 51°12.845 2°49.973 2.8 337 8.3 103390 82
2009-03-16 09:42:47 51°12.842 2°49.968 3.1 338 8.3 103390 82
2009-03-16 09:42:52 51°12.84 2°49.962 2.7 334 8.3 103390 82
2009-03-16 09:42:57 51°12.837 2°49.958 3.3 339 8.3 103390 81
2009-03-16 09:43:01 51°12.836 2°49.953 2.7 337 8.3 103390 81
2009-03-16 09:43:07 51°12.833 2°49.948 2.8 338 8.3 103390 81
2009-03-16 09:43:12 51°12.83 2°49.943 2.8 337 8.3 103390 81
2009-03-16 09:43:17 51°12.828 2°49.938 2.9 337 8.3 103390 81
2009-03-16 09:43:22 51°12.825 2°49.934 2.8 339 8.3 103390 81
2009-03-16 09:43:27 51°12.823 2°49.929 2.6 338 8.3 103390 81
2009-03-16 09:43:32 51°12.82 2°49.925 2.9 339 8.3 103390 81
2009-03-16 09:43:37 51°12.818 2°49.92 2.4 338 8.3 103390 81
2009-03-16 09:43:42 51°12.815 2°49.916 2.5 341 8.3 103390 81
2009-03-16 09:43:47 51°12.813 2°49.911 2.9 338 8.3 103390 82
2009-03-16 09:43:52 51°12.811 2°49.906 2.9 339 8.3 103390 82
2009-03-16 09:43:57 51°12.808 2°49.901 3.1 338 8.2 103390 82
2009-03-16 09:44:02 51°12.806 2°49.897 3.2 284 8.2 103390 82
2009-03-16 09:44:07 51°12.803 2°49.892 3 338 8.3 103390 82
2009-03-16 09:44:13 51°12.8 2°49.887 3.3 338 8.3 103390 82
2009-03-16 09:44:17 51°12.798 2°49.883 2.9 337 8.3 103390 82
2009-03-16 09:44:22 51°12.796 2°49.878 2.7 337 8.3 103390 82
2009-03-16 09:44:27 51°12.794 2°49.874 3 337 8.3 103390 82
2009-03-16 09:44:32 51°12.791 2°49.869 3.3 341 8.3 103390 82
2009-03-16 09:44:37 51°12.789 2°49.865 2.7 334 8.3 103380 82
2009-03-16 09:44:42 51°12.786 2°49.86 3 334 8.3 103380 82
2009-03-16 09:44:46 51°12.784 2°49.857 3 336 8.3 103390 82
2009-03-16 09:44:52 51°12.781 2°49.851 3 336 8.3 103390 82
2009-03-16 09:44:57 51°12.779 2°49.847 2.9 337 8.3 103380 82
2009-03-16 09:45:02 51°12.776 2°49.842 2.7 335 8.3 103380 82
2009-03-16 09:45:07 51°12.774 2°49.838 3.3 339 8.3 103390 82
2009-03-16 09:45:12 51°12.771 2°49.833 3 337 8.3 103390 82
2009-03-16 09:45:17 51°12.769 2°49.828 2.8 337 8.3 103390 81
2009-03-16 09:45:22 51°12.766 2°49.824 2.9 339 8.3 103390 81
2009-03-16 09:45:27 51°12.764 2°49.819 3.2 335 8.3 103380 81
2009-03-16 09:45:33 51°12.761 2°49.814 3.2 336 8.3 103380 81
2009-03-16 09:45:37 51°12.758 2°49.81 2.7 338 8.3 103380 81
2009-03-16 09:45:42 51°12.756 2°49.805 2.7 339 8.3 103380 81
2009-03-16 09:45:47 51°12.753 2°49.801 3.2 338 8.3 103380 81
2009-03-16 09:45:52 51°12.751 2°49.796 2.9 336 8.3 103380 81
2009-03-16 09:45:57 51°12.748 2°49.791 3.2 336 8.3 103390 81
2009-03-16 09:46:02 51°12.746 2°49.787 2.8 285 8.3 103390 81
2009-03-16 09:46:07 51°12.743 2°49.782 3.1 337 8.3 103390 81
2009-03-16 09:46:13 51°12.74 2°49.776 2.7 338 8.3 103390 81
2009-03-16 09:46:17 51°12.738 2°49.772 2.7 336 8.3 103380 81
2009-03-16 09:46:22 51°12.735 2°49.767 3.4 336 8.3 103380 81
2009-03-16 09:46:27 51°12.732 2°49.763 3.2 337 8.3 103380 81
2009-03-16 09:46:32 51°12.73 2°49.758 3.2 337 8.3 103380 81
2009-03-16 09:46:37 51°12.727 2°49.753 3.3 338 8.3 103380 81
2009-03-16 09:46:42 51°12.724 2°49.749 3.3 338 8.3 103380 81
2009-03-16 09:46:47 51°12.722 2°49.743 3.4 335 8.3 103380 81
2009-03-16 09:46:53 51°12.719 2°49.738 3.3 337 8.3 103380 81
2009-03-16 09:46:57 51°12.716 2°49.734 2.7 337 8.4 103380 81
2009-03-16 09:47:02 51°12.714 2°49.729 2.9 337 8.4 103380 81
2009-03-16 09:47:07 51°12.711 2°49.725 3 338 8.3 103380 81
2009-03-16 09:47:12 51°12.708 2°49.719 3.3 334 8.3 103380 81
2009-03-16 09:47:17 51°12.705 2°49.715 3.3 337 8.4 103390 81
2009-03-16 09:47:22 51°12.703 2°49.71 3.4 338 8.4 103390 81
2009-03-16 09:47:27 51°12.7 2°49.706 2.8 337 8.4 103380 81
2009-03-16 09:47:32 51°12.697 2°49.7 2.9 334 8.4 103380 81
2009-03-16 09:47:37 51°12.695 2°49.695 3.1 339 8.4 103380 81
2009-03-16 09:47:42 51°12.692 2°49.69 2.9 337 8.4 103380 81